CDT,Max TemperatureF,Mean TemperatureF,Min TemperatureF,Max Dew PointF,MeanDew PointF,Min DewpointF,Max Humidity, Mean Humidity, Min Humidity, Max Sea Level PressureIn, Mean Sea Level PressureIn, Min Sea Level PressureIn, Max VisibilityMiles, Mean VisibilityMiles, Min VisibilityMiles, Max Wind SpeedMPH, Mean Wind SpeedMPH, Max Gust SpeedMPH,PrecipitationIn, CloudCover, Events, WindDirDegrees
2012-10-1,73,60,46,54,44,37,82,62,33,30.07,30.01,29.94,10,10,10,29,9,38,0.03,2,Thunderstorm,350
2012-10-2,75,56,37,39,32,27,81,48,17,30.07,29.99,29.89,10,10,10,13,7,,0.00,0,,265
2012-10-3,84,64,44,48,42,32,66,45,27,29.91,29.86,29.78,10,10,10,28,12,33,0.00,0,,187
2012-10-4,64,56,48,48,33,30,62,45,31,30.31,30.22,29.96,10,10,10,24,15,36,0.00,4,,14
2012-10-5,53,45,37,32,29,25,65,53,35,30.36,30.29,30.25,10,10,8,22,10,29,0.00,4,,33
2012-10-6,42,36,30,34,31,27,87,73,57,30.40,30.35,30.29,10,10,9,17,8,21,0.01,7,,6
2012-10-7,51,37,23,37,28,19,93,68,44,30.36,30.26,30.13,10,9,0,16,6,20,0.00,4,,238
2012-10-8,73,53,33,37,30,25,81,48,16,30.13,29.99,29.87,10,10,10,22,12,30,0.00,0,,204
2012-10-9,64,50,35,39,34,21,76,51,39,30.21,29.97,29.82,10,10,10,28,14,36,0.00,0,,27
2012-10-10,66,47,28,30,25,21,80,46,21,30.28,30.18,30.06,10,10,7,18,6,24,0.00,0,,209
2012-10-11,78,62,46,48,40,28,71,49,32,30.18,30.03,29.96,10,10,9,22,12,29,0.00,0,,160
2012-10-12,51,48,46,48,38,30,94,69,44,30.25,30.16,29.93,10,8,1,21,11,23,0.01,8,Thunderstorm,74
2012-10-13,78,64,51,66,57,46,100,79,53,29.98,29.77,29.61,10,9,0,28,11,32,1.09,5,Thunderstorm,210
2012-10-14,75,63,51,48,43,39,76,53,29,30.10,29.99,29.67,10,10,10,20,13,28,0.00,0,,310
2012-10-15,84,64,44,48,44,39,87,54,22,30.07,29.93,29.77,10,10,10,16,7,23,0.00,0,,215
2012-10-16,78,62,46,48,43,39,76,49,26,29.77,29.65,29.49,10,10,3,15,9,,0.00,0,,213
2012-10-17,66,55,44,52,35,19,88,45,19,29.87,29.65,29.43,10,10,10,29,12,40,0.00,0,Thunderstorm,322
2012-10-18,62,53,44,25,20,16,43,28,16,29.92,29.88,29.83,10,8,2,37,19,48,0.00,3,,301
2012-10-19,68,54,39,27,18,10,53,28,11,29.97,29.89,29.82,10,10,10,23,14,31,0.00,0,,296
2012-10-20,86,62,39,46,32,21,61,38,13,29.82,29.73,29.64,10,10,10,16,6,,0.00,0,,191
2012-10-21,84,65,46,57,48,41,94,65,23,29.72,29.68,29.62,10,8,0,16,7,22,0.00,2,,154
2012-10-22,64,57,50,54,50,45,94,78,64,29.88,29.80,29.68,10,8,2,14,7,,0.00,4,,323
2012-10-23,86,68,50,61,48,37,94,59,18,29.78,29.70,29.66,10,8,2,18,8,20,0.00,1,,182
2012-10-24,71,61,51,61,52,39,88,72,56,29.80,29.72,29.68,10,10,6,22,14,29,0.00,2,,294
2012-10-25,51,42,33,46,31,25,87,65,43,30.35,30.09,29.68,10,10,3,29,20,39,0.01,4,,3
2012-10-26,42,33,24,27,23,18,80,64,42,30.55,30.44,30.37,10,10,10,17,11,22,0.00,3,,13
2012-10-27,48,34,19,27,21,16,86,62,37,30.41,30.30,30.20,10,10,10,15,4,18,0.00,0,,159
2012-10-28,59,42,24,27,23,18,80,52,27,30.27,30.20,30.12,10,10,10,18,8,23,0.00,1,,173
2012-10-29,69,53,37,32,28,25,65,42,23,30.17,30.09,30.01,10,10,10,21,13,25,0.00,0,,195
2012-10-30,71,55,39,37,34,30,70,49,29,30.03,29.97,29.93,10,10,5,16,8,21,0.00,1,,336
2012-10-31,75,54,32,39,34,27,81,56,25,30.09,30.02,29.96,10,10,9,13,4,17,0.00,0,,318